Location: Aldenham
(51.6667°N, 0.3500°W)
Time: 07:24:14
(UTC+00:00)

Explorer 7 - Pass Details

Date: 15 February 2026
Orbit: 430 x 541 km, 50.2° (Epoch: 12 March)

Event Time Altitude Azimuth Distance (km) Brightness Sun altitude
Rises 22:39:42 0° 275° (W) 2,606 - -46.2°
Reaches altitude 10° 22:43:54 10° 231° (SW) 1,750 - -46.6°
Maximum altitude 22:44:26 10° 223° (SW) 1,739 - -46.7°
Drops below altitude 10° 22:44:57 10° 216° (SW) 1,756 - -46.7°
Sets 22:49:15 0° 173° (S) 2,667 - -47.1°
